Regional Weather Roundup
Issued by NWS

Home | Current Version | Previous Version | Graphics & Text | Print | Product List | Glossary On
Versions: 1 2 3 4 5 6 7 8 9 10 11 12 13 14 15 16 17 18 19 20 21 22 23 24 25 26 27 28 29 30 31 32 33 34 35 36 37 38 39 40 41 42 43 44 45 46 47
000
ASUS45 KCYS 030810
RWRWY

WYOMING REGIONAL WEATHER ROUNDUP
NATIONAL WEATHER SERVICE CHEYENNE WY
100 AM MST TUE MAR 03 2015

NOTE:  "FAIR" INDICATES FEW OR NO CLOUDS BELOW 12,000 FEET
WITH NO SIGNIFICANT WEATHER AND/OR OBSTRUCTIONS TO VISIBILITY.

WYZ001-030900-
YELLOWSTONE NATIONAL PARK

CITY           SKY/WX    TMP DP  RH WIND       PRES   REMARKS
LK YELLOWSTONE   N/A     13   7  77 VRB5      29.65S WCI   5
W YELLOWSTONE  NOT AVBL

$$
WYZ002>013-054>058-071-098>099-030900-
NORTHERN WYOMING

CITY           SKY/WX    TMP DP  RH WIND       PRES   REMARKS
JACKSON        CLOUDY    23  23 100 CALM      29.64R
CODY           CLOUDY    16  10  79 NW13G21   29.88R WCI   2
GREYBULL       CLOUDY    21  10  62 NW30G38   29.81R WCI   3
WORLAND        LGT SNOW  20  16  84 NW28G38   29.78R FOG     WCI   2
SHERIDAN       LGT SNOW  17  13  84 NW17      29.94R VSB 1   WCI   1
BUFFALO        SNOW      15  11  83 NW30G43   29.82R VSB 1/2 WCI  -5
GILLETTE       LGT SNOW  17  13  84 N26G33    29.81R VSB 3/4 WCI  -2
HULETT         LGT SNOW  19  14  79 N14       29.82R VSB 3/4 WCI   6
NEWCASTLE      FAIR      27  18  69 N24       29.69R WCI  12

$$
WYZ014>020-022>026-101>103-030900-
CENTRAL WYOMING

CITY           SKY/WX    TMP DP  RH WIND       PRES   REMARKS
BIG PINEY      FAIR      17  12  80 NW9       29.64R WCI   6
PINEDALE       FLURRIES  23  21  93 W9        29.63R WCI  13
DUBOIS         LGT SNOW  19  18  93 SE6       29.62R WCI  11
LANDER         LGT SNOW  22  18  85 NE12      29.71R FOG     WCI  10
RIVERTON       CLOUDY    21  15  78 N30G38    29.70S BLWGSNOWWCI   3
CASPER         LGT SNOW  21  18  88 N22G28    29.71R VSB 1   WCI   5
DOUGLAS        LGT SNOW  25  22  88 NW21G26   29.69R VSB 1   WCI  11

$$
WYZ021-027>030-104>119-030900-
SOUTHERN WYOMING

CITY           SKY/WX    TMP DP  RH WIND       PRES   REMARKS
EVANSTON       MOCLDY    23  18  81 W15       29.73R WCI  10
KEMMERER       LGT SNOW  23  23 100 W17       29.69R WCI   9
FORT BRIDGER   FAIR      26  24  93 W20G25    29.73R WCI  12
ROCK SPRINGS   FAIR      24  21  88 W25       29.66R WCI   8
DIXON          CLOUDY    32  29  89 SW21G33   29.68R WCI  20
RAWLINS        LGT SNOW  22  18  85 N21       29.63R FOG     WCI   6
SARATOGA       HVY SNOW  30  30 100 SW35G43   29.59R VSB<1/4 WCI  14
LARAMIE        FAIR      29  22  75 SW29G40   29.51F WCI  14
CHEYENNE       FAIR      38  19  46 W15G23    29.54R WCI  29
TORRINGTON     CLOUDY    29  27  92 N6        29.61R WCI  23
PINE BLUFFS    FAIR      25  23  93 W7        29.56R FOG     WCI  17

$$



USA.gov is the U.S. government's official web portal to all federal, state and local government web resources and services.